[[{"header":{"parameterUnit":"m.s-1","parameterCategory":1,"la1":30.2991,"la2":30.254,"lo1":-89.0895,"lo2":-89.0444,"dx":0.0017,"dy":0.0017,"nx":28,"ny":28,"refTime":"2023-01-13T09:00:00:Z","depth":0,"parameterNumber":2,"parameterNumberName":"U-component_of_WINDS"},"data":[0,0,0,0,0,0,0,0,0,0,0,0,0,0,0,0,0,0,0,0,0,0,0,0,0,0,0,0,0,0,0,0,0,0,0,0,0,0,0,0,0,0,0,0,0,0,0,0,0,0,0,0,0,0,0,0,0,0,3.7223,3.7225,0,3.7378,3.738,3.7382,3.7393,3.7392,3.739,3.7388,3.7546,3.7552,3.7557,0,0,0,0,0,0,0,0,0,0,0,0,0,3.6937,3.6942,3.7223,3.7225,3.7227,3.7378,3.738,3.7382,3.7394,3.7392,3.739,3.7388,3.7544,3.7551,3.7558,0,0,0,0,0,0,0,0,0,0,0,0,0,3.7074,3.6944,3.7223,3.7251,3.7255,3.7378,3.738,3.7383,3.7394,3.7392,3.7389,3.7387,3.7542,3.755,3.7559,3.7664,0,0,3.7585,3.7589,0,0,0,0,0,0,0,0,3.7066,3.7084,3.7245,3.7249,3.7254,3.7364,3.7337,3.7477,3.7395,3.7341,3.7388,3.7385,3.7487,3.75,3.7535,3.7671,3.7678,3.7586,3.7591,3.7595,3.7598,0,0,0,0,0,0,0,3.7057,3.7078,3.7284,3.7247,3.7253,3.7256,3.7273,3.7364,3.7427,3.7346,3.7347,3.7365,3.7489,3.7527,3.7539,3.768,3.7586,3.7594,3.7599,3.7602,3.7912,3.7915,0,0,0,0,0,0,3.7042,3.707,3.728,3.7289,3.7152,3.7263,3.7282,3.7331,3.7426,3.7438,3.7367,3.7365,3.7513,3.7529,3.7545,3.7675,3.7595,3.7603,3.7608,3.7909,3.7913,3.7916,0,0,0,0,0,0,3.7036,3.706,3.7273,3.718,3.7207,3.7271,3.7326,3.7336,3.7373,3.7442,3.7453,3.7394,3.7512,3.7532,3.7635,3.768,3.7607,3.7615,3.7906,3.791,3.7914,3.7935,0,0,0,0,0,0,3.7027,3.7058,3.7098,3.7181,3.7212,3.7361,3.7329,3.7341,3.7388,3.7387,3.747,3.7481,3.7511,3.7622,3.7643,3.7691,3.7622,3.7902,3.7908,3.7913,3.7931,3.794,3.7948,0,0,0,0,0,3.7017,3.7097,3.71,3.7125,3.7264,3.7363,3.7381,3.7414,3.7392,3.7433,3.7478,3.7479,3.7672,3.7632,3.7656,3.7707,3.7899,3.7906,3.7913,3.7927,3.7938,3.7947,0,0,0,0,0,0,3.7017,3.7108,3.7113,3.7222,3.7285,3.7365,3.7418,3.7425,3.7495,3.7491,3.7529,3.7548,3.7649,3.7689,3.7642,3.7815,3.7783,3.7795,3.7785,3.7797,3.7805,3.7793,3.7629,0,0,0,0,0,3.703,3.7103,3.7179,3.7268,3.73,3.7353,3.7398,3.7418,3.7485,3.7511,3.7564,3.7628,3.7704,3.7752,3.7825,3.7937,3.7955,3.7984,3.7992,3.7999,3.8009,3.8072,3.8086,3.7938,3.7938,3.7938,0,0,3.7057,3.7116,3.716,3.727,3.7321,3.7396,3.7375,3.7455,3.7512,3.7523,3.7624,3.7664,3.7739,3.7847,3.7897,3.7882,3.8054,3.8008,3.8012,3.8019,3.8081,3.8095,3.8107,3.7943,3.7942,3.7941,0,0,3.7145,3.7197,3.7277,3.733,3.7408,3.7444,3.7463,3.7543,3.7571,3.7672,3.7683,3.7751,3.7879,3.7933,3.7976,3.8087,3.8091,3.811,3.8154,3.8216,3.8227,3.8238,3.8278,3.8292,3.812,3.812,3.812,0,3.7169,3.7283,3.7318,3.7399,3.7447,3.7462,3.7545,3.7593,3.7691,3.7725,3.7708,3.7871,3.7922,3.8043,3.8071,3.8106,3.813,3.81,3.8223,3.8234,3.8244,3.8283,3.8298,3.8122,3.8121,3.8121,3.8121,0,3.7309,3.7388,3.7443,3.7539,3.7594,3.7675,3.7723,3.7774,3.779,3.7828,3.7932,3.7994,3.8081,3.8111,3.8127,3.8236,3.8225,3.8215,3.8184,3.826,3.8297,3.8312,3.8124,3.8124,3.8123,3.8123,0,0,3.7399,3.7515,3.7535,3.7579,3.7668,3.773,3.7812,3.7898,3.7942,3.8009,3.808,3.819,3.8182,3.8232,3.8255,3.8308,3.8394,3.8293,3.8295,3.831,3.8518,3.8525,3.8542,3.8397,3.84,3.8403,3.8512,0,3.7498,3.7645,3.768,3.7806,3.7881,3.7897,3.7969,3.8032,3.807,3.8138,3.818,3.8258,3.8241,3.8272,3.8326,3.8372,3.8436,3.8365,3.8464,3.8467,3.8445,3.8561,3.8568,3.8669,3.8527,3.853,3.8531,0,3.7632,3.7704,3.7838,3.7918,3.7951,3.8015,3.8097,3.8163,3.8234,3.8258,3.8315,3.8333,3.842,3.8385,3.8507,3.8457,3.85,3.8529,3.8534,3.8544,3.8503,3.8575,3.8701,3.8716,3.8555,3.8553,3.8551,0,3.7686,3.7816,3.7913,3.7951,3.8047,3.8092,3.8134,3.8203,3.8253,3.8326,3.8359,3.844,3.8484,3.8547,3.8587,3.8557,3.8705,3.8673,3.8728,3.8727,3.8758,3.8756,3.8893,3.8785,3.8785,3.8785,3.8785,0,3.7792,3.7873,3.7939,3.7999,3.8091,3.8131,3.8222,3.8264,3.8326,3.8395,3.8414,3.8478,3.8527,3.8598,3.863,3.8726,3.8746,3.8768,3.8776,3.8767,3.8764,3.8795,3.8789,3.8789,3.8788,3.8787,3.8787,0,3.7867,3.7914,3.8022,3.8105,3.8128,3.8192,3.8264,3.8323,3.8362,3.8449,3.8472,3.8534,3.8619,3.8665,3.8771,3.8792,3.8901,3.8904,3.8876,3.888,3.8932,3.8927,3.9095,3.9119,3.8995,3.8996,3.8997,0,3.7932,3.7995,3.8086,3.8133,3.8177,3.8253,3.8305,3.8348,3.8401,3.8488,3.8537,3.8624,3.8695,3.8831,3.8885,3.8967,3.8972,3.9026,3.8985,3.8974,3.8974,3.897,3.8977,3.9033,3.9034,3.9035,3.9036,0,3.8042,3.8062,3.8136,3.8219,3.8281,3.8348,3.8414,3.8452,3.8506,3.8564,3.8652,3.8708,3.8817,3.8903,3.899,3.9034,3.9044,3.9048,3.9066,3.9057,3.9039,3.905,3.8896,3.9044,3.9043,3.9043,3.9042,3.9042,3.8114,3.8172,3.8245,3.8327,3.8382,3.8444,3.8504,3.8552,3.8626,3.8719,3.8739,3.8832,3.8904,3.9022,3.9069,3.9142,3.9132,3.9156,3.9163,3.9168,3.9171,3.9027,3.9158,3.9158,3.9158,3.9158,3.9158,0,3.8226,3.8274,3.8349,3.8442,3.8507,3.8512,3.8587,3.8641,3.8722,3.8789,3.8859,3.8961,3.9045,3.9107,3.9193,3.924,3.9247,3.9261,3.9258,3.9268,3.9175,3.9152,3.9254,3.9254,3.9254,3.9254,3.9254,3.9254,3.8291,3.839,3.842,3.8546,3.8594,3.8685,3.8728,3.8786,3.8839,3.8952,3.9022,3.9062,3.9127,3.9219,3.9296,3.9312,3.9343,3.9357,3.9374,3.9285,3.9275,3.9265,3.9243,3.9363,3.9364,3.9461,3.9462,3.9463]},{"header":{"parameterUnit":"m.s-1","parameterCategory":1,"la1":30.2991,"la2":30.254,"lo1":-89.0895,"lo2":-89.0444,"dx":0.0017,"dy":0.0017,"nx":28,"ny":28,"refTime":"2023-01-13T09:00:00:Z","depth":0,"parameterNumber":3,"parameterNumberName":"V-component_of_WINDS"},"data":[0,0,0,0,0,0,0,0,0,0,0,0,0,0,0,0,0,0,0,0,0,0,0,0,0,0,0,0,0,0,0,0,0,0,0,0,0,0,0,0,0,0,0,0,0,0,0,0,0,0,0,0,0,0,0,0,0,0,-6.7207,-6.721,0,-6.7428,-6.743,-6.7433,-6.7407,-6.7403,-6.7399,-6.7396,-6.7618,-6.7627,-6.7636,0,0,0,0,0,0,0,0,0,0,0,0,0,-6.6762,-6.6771,-6.7207,-6.721,-6.7213,-6.7427,-6.743,-6.7433,-6.7407,-6.7403,-6.7399,-6.7394,-6.7615,-6.7626,-6.7637,0,0,0,0,0,0,0,0,0,0,0,0,0,-6.6966,-6.6773,-6.7207,-6.7226,-6.723,-6.7427,-6.743,-6.7434,-6.7408,-6.7403,-6.7397,-6.7392,-6.7611,-6.7625,-6.7638,-6.783,0,0,-6.7681,-6.7687,0,0,0,0,0,0,0,0,-6.6955,-6.6983,-6.722,-6.7225,-6.7229,-6.7384,-6.7355,-6.7567,-6.7409,-6.734,-6.7396,-6.739,-6.7544,-6.7563,-6.7616,-6.784,-6.785,-6.7682,-6.769,-6.7696,-6.77,0,0,0,0,0,0,0,-6.6941,-6.6973,-6.7294,-6.7224,-6.7229,-6.7223,-6.7246,-6.7395,-6.7469,-6.7346,-6.7344,-6.7371,-6.7546,-6.7603,-6.7621,-6.7853,-6.7681,-6.7694,-6.7702,-6.7708,-6.8247,-6.8253,0,0,0,0,0,0,-6.6922,-6.6961,-6.7287,-6.7301,-6.7076,-6.7235,-6.7261,-6.734,-6.7467,-6.7482,-6.7375,-6.7369,-6.7582,-6.7605,-6.7629,-6.7863,-6.7696,-6.7709,-6.7717,-6.8241,-6.8248,-6.8255,0,0,0,0,0,0,-6.6913,-6.6951,-6.7278,-6.7131,-6.7172,-6.7248,-6.7337,-6.7347,-6.7404,-6.749,-6.7503,-6.742,-6.7579,-6.7609,-6.7781,-6.787,-6.7715,-6.7728,-6.8234,-6.8243,-6.8252,-6.8332,0,0,0,0,0,0,-6.69,-6.6948,-6.7022,-6.7133,-6.718,-6.7428,-6.7343,-6.7355,-6.7428,-6.7422,-6.7535,-6.7549,-6.7577,-6.776,-6.7795,-6.7886,-6.7739,-6.8226,-6.8238,-6.8249,-6.8321,-6.8342,-6.836,0,0,0,0,0,-6.6884,-6.7034,-6.7026,-6.7065,-6.7274,-6.7433,-6.746,-6.749,-6.7436,-6.7511,-6.7566,-6.7545,-6.7855,-6.7778,-6.7816,-6.7914,-6.8221,-6.8235,-6.8248,-6.8313,-6.8338,-6.836,0,0,0,0,0,0,-6.693,-6.7049,-6.7041,-6.7232,-6.7323,-6.7428,-6.7523,-6.7516,-6.7623,-6.7612,-6.7644,-6.767,-6.7843,-6.7895,-6.7808,-6.8107,-6.803,-6.8052,-6.8066,-6.8091,-6.8111,-6.8095,-6.775,0,0,0,0,0,-6.6963,-6.7083,-6.718,-6.7339,-6.7385,-6.7447,-6.7517,-6.7532,-6.7627,-6.7665,-6.7733,-6.7825,-6.7943,-6.802,-6.8133,-6.8329,-6.8354,-6.8415,-6.8434,-6.845,-6.8468,-6.8577,-6.8606,-6.83,-6.83,-6.8299,0,0,-6.7031,-6.7111,-6.7184,-6.735,-6.7422,-6.7545,-6.7479,-6.7611,-6.7703,-6.7684,-6.7852,-6.7905,-6.8009,-6.8194,-6.8279,-6.8243,-6.8559,-6.8467,-6.8479,-6.8489,-6.8594,-6.8623,-6.8649,-6.8309,-6.8307,-6.8306,0,0,-6.7219,-6.7291,-6.7432,-6.7506,-6.7617,-6.7658,-6.7692,-6.7799,-6.7835,-6.8003,-6.7992,-6.8101,-6.8303,-6.8379,-6.8444,-6.8663,-6.8649,-6.8699,-6.8801,-6.8907,-6.8931,-6.8952,-6.9032,-6.906,-6.8717,-6.8717,-6.8717,0,-6.7289,-6.7475,-6.7505,-6.7641,-6.7714,-6.7705,-6.7849,-6.7919,-6.8061,-6.8112,-6.8069,-6.8325,-6.8395,-6.8598,-6.8652,-6.8704,-6.8745,-6.8686,-6.8925,-6.8947,-6.8968,-6.9044,-6.9073,-6.8723,-6.8722,-6.8722,-6.8721,0,-6.7557,-6.7686,-6.7787,-6.7926,-6.8011,-6.815,-6.8201,-6.8283,-6.8292,-6.8337,-6.8509,-6.8592,-6.8723,-6.8773,-6.8781,-6.8978,-6.8953,-6.8918,-6.8842,-6.9002,-6.9074,-6.9103,-6.8731,-6.8729,-6.8727,-6.8726,0,0,-6.7779,-6.7935,-6.7972,-6.8036,-6.8158,-6.8258,-6.8397,-6.8527,-6.8597,-6.8695,-6.8813,-6.8985,-6.8955,-6.9028,-6.9046,-6.9139,-6.9309,-6.9092,-6.9095,-6.9131,-6.9533,-6.9559,-6.9592,-6.93,-6.9305,-6.931,-6.9524,0,-6.798,-6.8226,-6.8258,-6.8476,-6.8597,-6.8591,-6.8712,-6.88,-6.8846,-6.8954,-6.9004,-6.9127,-6.9076,-6.9121,-6.9212,-6.9269,-6.939,-6.9253,-6.9409,-6.9415,-6.9384,-6.963,-6.9658,-6.9856,-6.9552,-6.9557,-6.9561,0,-6.8246,-6.8354,-6.8585,-6.8693,-6.8745,-6.8853,-6.8976,-6.908,-6.918,-6.9207,-6.9291,-6.9297,-6.944,-6.9358,-6.9556,-6.9463,-6.9528,-6.9566,-6.9574,-6.9591,-6.9498,-6.9654,-6.992,-6.995,-6.9605,-6.9602,-6.9598,0,-6.8387,-6.859,-6.8755,-6.881,-6.8939,-6.9016,-6.9073,-6.9168,-6.9245,-6.9352,-6.9402,-6.9524,-6.959,-6.9684,-6.9723,-6.9659,-6.992,-6.984,-6.9946,-6.9946,-7.0002,-6.9998,-7.0283,-7.0042,-7.0042,-7.0041,-7.0041,0,-6.8608,-6.875,-6.882,-6.8922,-6.9081,-6.9117,-6.9273,-6.9327,-6.9412,-6.9524,-6.9525,-6.963,-6.9675,-6.9787,-6.9818,-6.9978,-7.0008,-7.0033,-7.004,-7.0034,-7.0031,-7.0078,-7.0066,-7.0049,-7.0047,-7.0046,-7.0045,0,-6.8792,-6.8845,-6.9025,-6.9134,-6.9165,-6.9277,-6.937,-6.9469,-6.9514,-6.9656,-6.9691,-6.9762,-6.9894,-6.9942,-7.0102,-7.0123,-7.0309,-7.0304,-7.0276,-7.0278,-7.0382,-7.0372,-7.0708,-7.0755,-7.0482,-7.0484,-7.0486,0,-6.8931,-6.904,-6.9161,-6.9237,-6.9298,-6.942,-6.9499,-6.9538,-6.962,-6.9744,-6.9828,-6.996,-7.0067,-7.0278,-7.0344,-7.0467,-7.0465,-7.0574,-7.0483,-7.0475,-7.0468,-7.0462,-7.0474,-7.0591,-7.0594,-7.0596,-7.0598,0,-6.9171,-6.9192,-6.9306,-6.9431,-6.9526,-6.9625,-6.9722,-6.9784,-6.9837,-6.993,-7.0066,-7.015,-7.0314,-7.0446,-7.0572,-7.063,-7.0624,-7.0627,-7.0658,-7.0653,-7.0634,-7.0647,-7.0324,-7.0619,-7.0617,-7.0615,-7.0614,-7.0613,-6.9338,-6.9435,-6.9537,-6.9665,-6.9742,-6.9833,-6.9931,-6.999,-7.0104,-7.0243,-7.0259,-7.0405,-7.0504,-7.0673,-7.0738,-7.0853,-7.0823,-7.0868,-7.0879,-7.089,-7.0899,-7.0615,-7.0876,-7.0875,-7.0875,-7.0874,-7.0874,0,-6.9579,-6.9645,-6.9762,-6.9898,-6.9999,-6.9986,-7.0092,-7.0178,-7.0307,-7.04,-7.0507,-7.0664,-7.0792,-7.0868,-7.0996,-7.1074,-7.1074,-7.1106,-7.1101,-7.1115,-7.0917,-7.0878,-7.1104,-7.1104,-7.1104,-7.1104,-7.1104,-7.1104,-6.9717,-6.9882,-6.9916,-7.012,-7.0184,-7.0329,-7.0391,-7.0475,-7.055,-7.0726,-7.0833,-7.0882,-7.0969,-7.1104,-7.1221,-7.124,-7.1287,-7.1323,-7.1339,-7.1153,-7.1129,-7.1106,-7.107,-7.1332,-7.1333,-7.1528,-7.153,-7.1531]}]]